BTK6863 WIDD-WIII

Flight info

Callsign BTK6863
Flight time 1h 15m
Altitude 35000
Route ANITO1J ANITO B470 BUNIK BUNIK2M
Aircraft A320/M-SDE3FGHIRWY/LB1

Departure

Time 2026-04-20 16:17
Airport Hang Nadim International Airport (WIDD)

Arrival

Time 2026-04-20 17:32
Airport Soekarno-Hatta International Airport (WIII)
Time Latitude Longitude Altitude Speed Heading
2026-04-20 15:51 1.12211 104.11539 141 ft 0 kts 310°
2026-04-20 16:08 1.12199 104.11554 141 ft 4 kts 306°
2026-04-20 16:09 1.12184 104.11576 141 ft 4 kts 296°
2026-04-20 16:09 1.12174 104.11601 141 ft 4 kts 276°
2026-04-20 16:09 1.12177 104.11625 141 ft 3 kts 224°
2026-04-20 16:09 1.12183 104.11630 141 ft 0 kts 221°
2026-04-20 16:11 1.12182 104.11630 141 ft 0 kts 221°
2026-04-20 16:12 1.12180 104.11628 141 ft 3 kts 221°
2026-04-20 16:12 1.12154 104.11605 141 ft 7 kts 221°
2026-04-20 16:13 1.12101 104.11577 141 ft 10 kts 175°
2026-04-20 16:13 1.12025 104.11584 141 ft 13 kts 204°
2026-04-20 16:13 1.11945 104.11517 141 ft 17 kts 222°
2026-04-20 16:13 1.11847 104.11428 141 ft 20 kts 221°
2026-04-20 16:14 1.11730 104.11326 141 ft 23 kts 221°
2026-04-20 16:14 1.11617 104.11226 141 ft 19 kts 221°
2026-04-20 16:14 1.11549 104.11166 141 ft 8 kts 222°
2026-04-20 16:14 1.11496 104.11162 141 ft 6 kts 126°
2026-04-20 16:15 1.11499 104.11209 141 ft 8 kts 73°
2026-04-20 16:15 1.11520 104.11275 141 ft 11 kts 71°
2026-04-20 16:15 1.11541 104.11344 141 ft 9 kts 87°
2026-04-20 16:15 1.11557 104.11393 141 ft 6 kts 44°
2026-04-20 16:16 1.11591 104.11422 141 ft 12 kts 40°
2026-04-20 16:16 1.11811 104.11616 141 ft 74 kts 41°
2026-04-20 16:16 1.12341 104.12087 141 ft 130 kts 42°
2026-04-20 16:16 1.13108 104.12783 214 ft 159 kts 42°
2026-04-20 16:17 1.13945 104.13548 618 ft 166 kts 42°
2026-04-20 16:17 1.14816 104.14337 1203 ft 171 kts 40°
2026-04-20 16:17 1.15709 104.15114 1871 ft 172 kts 39°
2026-04-20 16:17 1.16673 104.15951 2149 ft 197 kts 38°
2026-04-20 16:18 1.17788 104.16917 2328 ft 228 kts 39°
2026-04-20 16:18 1.19043 104.18010 2801 ft 247 kts 39°
2026-04-20 16:18 1.20366 104.19181 3371 ft 262 kts 43°
2026-04-20 16:18 1.21356 104.20747 3983 ft 272 kts 73°
2026-04-20 16:19 1.21434 104.22614 4733 ft 274 kts 105°
2026-04-20 16:19 1.20546 104.24274 5631 ft 272 kts 134°
2026-04-20 16:19 1.18994 104.25345 6511 ft 274 kts 156°
2026-04-20 16:19 1.17237 104.26167 7154 ft 284 kts 158°
2026-04-20 16:20 1.15436 104.27036 7952 ft 290 kts 158°
2026-04-20 16:20 1.13614 104.27929 8756 ft 294 kts 157°
2026-04-20 16:20 1.11752 104.28841 9560 ft 299 kts 158°
2026-04-20 16:20 1.09894 104.29741 10310 ft 304 kts 158°
2026-04-20 16:21 1.07927 104.30714 10561 ft 330 kts 155°
2026-04-20 16:21 1.05866 104.31891 10950 ft 348 kts 152°
2026-04-20 16:21 1.03766 104.33172 11521 ft 359 kts 152°
2026-04-20 16:21 1.01580 104.34467 12180 ft 366 kts 153°
2026-04-20 16:22 0.99341 104.35717 12870 ft 371 kts 154°
2026-04-20 16:22 0.97031 104.36930 13570 ft 376 kts 156°
2026-04-20 16:22 0.94680 104.38101 14259 ft 380 kts 157°
2026-04-20 16:22 0.92283 104.39247 14934 ft 383 kts 158°
2026-04-20 16:23 0.89857 104.40370 15595 ft 386 kts 159°
2026-04-20 16:23 0.87399 104.41482 16247 ft 390 kts 159°
2026-04-20 16:23 0.84934 104.42574 16869 ft 393 kts 159°
2026-04-20 16:23 0.82428 104.43670 17476 ft 396 kts 160°
2026-04-20 16:24 0.79874 104.44773 18072 ft 400 kts 160°
2026-04-20 16:24 0.77307 104.45873 18650 ft 403 kts 160°
2026-04-20 16:24 0.74717 104.46974 19213 ft 406 kts 160°
2026-04-20 16:24 0.72092 104.48082 19761 ft 410 kts 160°
2026-04-20 16:25 0.69460 104.49186 20288 ft 413 kts 160°
2026-04-20 16:25 0.66792 104.50297 20801 ft 416 kts 161°
2026-04-20 16:25 0.64109 104.51407 21297 ft 419 kts 161°
2026-04-20 16:25 0.61397 104.52521 21778 ft 422 kts 161°
2026-04-20 16:26 0.58662 104.53637 22245 ft 425 kts 161°
2026-04-20 16:26 0.55913 104.54752 22697 ft 428 kts 161°
2026-04-20 16:26 0.53140 104.55870 23136 ft 431 kts 161°
2026-04-20 16:26 0.50382 104.56974 23556 ft 433 kts 161°
2026-04-20 16:27 0.47537 104.58106 23972 ft 436 kts 161°
2026-04-20 16:27 0.44735 104.59214 24367 ft 439 kts 161°
2026-04-20 16:27 0.41879 104.60337 24754 ft 441 kts 161°
2026-04-20 16:27 0.39011 104.61458 25129 ft 444 kts 162°
2026-04-20 16:28 0.36132 104.62577 25491 ft 446 kts 162°
2026-04-20 16:28 0.33219 104.63702 25845 ft 449 kts 162°
2026-04-20 16:28 0.30293 104.64826 26186 ft 451 kts 162°
2026-04-20 16:28 0.27355 104.65951 26519 ft 453 kts 162°
2026-04-20 16:29 0.24400 104.67077 26841 ft 455 kts 162°
2026-04-20 16:29 0.21424 104.68209 27155 ft 458 kts 162°
2026-04-20 16:29 0.18436 104.69342 27468 ft 460 kts 162°
2026-04-20 16:29 0.15436 104.70476 27791 ft 461 kts 162°
2026-04-20 16:30 0.12457 104.71597 28096 ft 463 kts 162°
2026-04-20 16:30 0.09403 104.72743 28398 ft 465 kts 162°
2026-04-20 16:30 0.06365 104.73879 28691 ft 467 kts 162°
2026-04-20 16:30 0.03303 104.75019 28978 ft 469 kts 162°
2026-04-20 16:31 0.00276 104.76142 29256 ft 471 kts 162°
2026-04-20 16:31 -0.02814 104.77284 29535 ft 473 kts 162°
2026-04-20 16:31 -0.05910 104.78424 29809 ft 475 kts 162°
2026-04-20 16:31 -0.09015 104.79563 30079 ft 477 kts 162°
2026-04-20 16:32 -0.12147 104.80706 30369 ft 478 kts 163°
2026-04-20 16:32 -0.15278 104.81846 30680 ft 479 kts 163°
2026-04-20 16:32 -0.18379 104.82971 31001 ft 479 kts 163°
2026-04-20 16:32 -0.21515 104.84105 31333 ft 479 kts 163°
2026-04-20 16:33 -0.24661 104.85240 31667 ft 479 kts 163°
2026-04-20 16:33 -0.27796 104.86369 32000 ft 478 kts 162°
2026-04-20 16:33 -0.30772 104.87875 32451 ft 480 kts 148°
2026-04-20 16:33 -0.33440 104.89869 32810 ft 480 kts 144°
2026-04-20 16:34 -0.36124 104.91877 33051 ft 480 kts 147°
2026-04-20 16:34 -0.38867 104.93782 33316 ft 480 kts 148°
2026-04-20 16:34 -0.41630 104.95656 33601 ft 480 kts 148°
2026-04-20 16:34 -0.44393 104.97524 33889 ft 480 kts 148°
2026-04-20 16:35 -0.47164 104.99396 34175 ft 479 kts 148°
2026-04-20 16:35 -0.49930 105.01266 34458 ft 479 kts 148°
2026-04-20 16:35 -0.52692 105.03133 34758 ft 478 kts 148°
2026-04-20 16:35 -0.55443 105.04994 34865 ft 478 kts 148°
2026-04-20 16:36 -0.60951 105.08721 34901 ft 474 kts 148°
2026-04-20 16:36 -0.65601 105.11866 34904 ft 473 kts 148°
2026-04-20 16:37 -0.71067 105.15565 34904 ft 473 kts 148°
2026-04-20 16:37 -0.76521 105.19256 34904 ft 473 kts 148°
2026-04-20 16:38 -0.81981 105.22950 34904 ft 473 kts 148°
2026-04-20 16:38 -0.87456 105.26655 34904 ft 473 kts 148°
2026-04-20 16:39 -0.92909 105.30345 34904 ft 473 kts 148°
2026-04-20 16:39 -0.98339 105.34020 34904 ft 473 kts 148°
2026-04-20 16:40 -1.03792 105.37711 34904 ft 473 kts 148°
2026-04-20 16:40 -1.09255 105.41409 34904 ft 473 kts 148°
2026-04-20 16:41 -1.14711 105.45101 34904 ft 473 kts 148°
2026-04-20 16:41 -1.20171 105.48797 34904 ft 473 kts 148°
2026-04-20 16:42 -1.25625 105.52489 34904 ft 473 kts 148°
2026-04-20 16:42 -1.31042 105.56156 34904 ft 473 kts 148°
2026-04-20 16:43 -1.36489 105.59843 34904 ft 473 kts 148°
2026-04-20 16:43 -1.41951 105.63541 34904 ft 473 kts 148°
2026-04-20 16:44 -1.47410 105.67237 34904 ft 473 kts 148°
2026-04-20 16:44 -1.52862 105.70929 34904 ft 473 kts 148°
2026-04-20 16:45 -1.58311 105.74619 34904 ft 473 kts 148°
2026-04-20 16:45 -1.63736 105.78292 34904 ft 473 kts 148°
2026-04-20 16:46 -1.69188 105.81984 34904 ft 473 kts 148°
2026-04-20 16:46 -1.74636 105.85674 34904 ft 473 kts 148°
2026-04-20 16:47 -1.80087 105.89366 34904 ft 473 kts 148°
2026-04-20 16:47 -1.85535 105.93056 34904 ft 473 kts 148°
2026-04-20 16:48 -1.90986 105.96749 34904 ft 473 kts 148°
2026-04-20 16:48 -1.96438 106.00443 34904 ft 473 kts 148°
2026-04-20 16:49 -2.01850 106.04109 34904 ft 473 kts 148°
2026-04-20 16:49 -2.07326 106.07820 34904 ft 473 kts 148°
2026-04-20 16:50 -2.12760 106.11478 34903 ft 472 kts 150°
2026-04-20 16:50 -2.18655 106.14264 34904 ft 466 kts 165°
2026-04-20 16:51 -2.24955 106.15621 34905 ft 463 kts 173°
2026-04-20 16:51 -2.31300 106.16708 34904 ft 463 kts 173°
2026-04-20 16:52 -2.37658 106.17793 34904 ft 463 kts 173°
2026-04-20 16:52 -2.44004 106.18876 34904 ft 463 kts 173°
2026-04-20 16:53 -2.50361 106.19961 34904 ft 463 kts 173°
2026-04-20 16:53 -2.56678 106.21040 34904 ft 463 kts 173°
2026-04-20 16:54 -2.63030 106.22126 34904 ft 463 kts 173°
2026-04-20 16:54 -2.69422 106.23219 34904 ft 463 kts 173°
2026-04-20 16:55 -2.75721 106.24296 34904 ft 463 kts 173°
2026-04-20 16:55 -2.82090 106.25385 34904 ft 463 kts 173°
2026-04-20 16:56 -2.88440 106.26472 34904 ft 463 kts 173°
2026-04-20 16:56 -2.94761 106.27553 34904 ft 463 kts 173°
2026-04-20 16:57 -3.01110 106.28640 34904 ft 463 kts 173°
2026-04-20 16:57 -3.07459 106.29727 34904 ft 463 kts 173°
2026-04-20 16:58 -3.13808 106.30814 34904 ft 463 kts 173°
2026-04-20 16:58 -3.20156 106.31901 34904 ft 463 kts 173°
2026-04-20 16:59 -3.26509 106.32989 34904 ft 463 kts 173°
2026-04-20 16:59 -3.32857 106.34076 34904 ft 463 kts 173°
2026-04-20 17:00 -3.42396 106.35710 34904 ft 463 kts 173°
2026-04-20 17:01 -3.48736 106.36797 34904 ft 463 kts 173°
2026-04-20 17:01 -3.55090 106.37886 34904 ft 463 kts 173°
2026-04-20 17:02 -3.61436 106.38973 34904 ft 463 kts 173°
2026-04-20 17:02 -3.67767 106.40124 34904 ft 463 kts 172°
2026-04-20 17:03 -3.74101 106.41313 34904 ft 463 kts 172°
2026-04-20 17:03 -3.80439 106.42503 34904 ft 463 kts 172°
2026-04-20 17:04 -3.86775 106.43692 34904 ft 463 kts 172°
2026-04-20 17:04 -3.93069 106.44872 34904 ft 463 kts 172°
2026-04-20 17:05 -3.99412 106.46060 34904 ft 463 kts 172°
2026-04-20 17:05 -4.05753 106.47248 34904 ft 463 kts 172°
2026-04-20 17:06 -4.12080 106.48434 34904 ft 463 kts 172°
2026-04-20 17:06 -4.18420 106.49622 34904 ft 463 kts 172°
2026-04-20 17:07 -4.24716 106.50801 34904 ft 463 kts 172°
2026-04-20 17:07 -4.31048 106.51987 34904 ft 463 kts 172°
2026-04-20 17:07 -4.34236 106.52584 34721 ft 465 kts 172°
2026-04-20 17:08 -4.37415 106.53180 34181 ft 462 kts 172°
2026-04-20 17:08 -4.40572 106.53772 33543 ft 461 kts 172°
2026-04-20 17:08 -4.43692 106.54357 32927 ft 460 kts 172°
2026-04-20 17:08 -4.46873 106.54954 32288 ft 458 kts 172°
2026-04-20 17:09 -4.48947 106.55342 31858 ft 458 kts 172°
2026-04-20 17:09 -4.52077 106.55930 31246 ft 455 kts 172°
2026-04-20 17:09 -4.55171 106.56510 30609 ft 453 kts 172°
2026-04-20 17:09 -4.58272 106.57091 29979 ft 451 kts 172°
2026-04-20 17:10 -4.59111 106.57249 29829 ft 449 kts 172°
2026-04-20 17:10 -4.60839 106.57573 29490 ft 448 kts 172°
2026-04-20 17:10 -4.63858 106.58139 28874 ft 445 kts 172°
2026-04-20 17:11 -4.66897 106.58710 28267 ft 442 kts 172°
2026-04-20 17:11 -4.69916 106.59276 27632 ft 439 kts 173°
2026-04-20 17:11 -4.72913 106.59839 27040 ft 435 kts 173°
2026-04-20 17:11 -4.75880 106.60396 26445 ft 431 kts 173°
2026-04-20 17:12 -4.78815 106.60948 25857 ft 428 kts 173°
2026-04-20 17:12 -4.81725 106.61494 25286 ft 423 kts 173°
2026-04-20 17:12 -4.84616 106.62037 24708 ft 419 kts 173°
2026-04-20 17:12 -4.87379 106.62718 24495 ft 410 kts 163°
2026-04-20 17:13 -4.90021 106.63850 24028 ft 405 kts 158°
2026-04-20 17:13 -4.92560 106.65053 23449 ft 403 kts 158°
2026-04-20 17:13 -4.95057 106.66242 22901 ft 400 kts 158°
2026-04-20 17:13 -4.97562 106.67426 22367 ft 397 kts 158°
2026-04-20 17:14 -5.00059 106.68596 21843 ft 394 kts 158°
2026-04-20 17:14 -5.02539 106.69751 21329 ft 391 kts 158°
2026-04-20 17:14 -5.04999 106.70892 20817 ft 388 kts 159°
2026-04-20 17:14 -5.07439 106.72019 20312 ft 385 kts 159°
2026-04-20 17:15 -5.09867 106.73137 19809 ft 382 kts 159°
2026-04-20 17:15 -5.12265 106.74239 19314 ft 379 kts 159°
2026-04-20 17:15 -5.14655 106.75335 18824 ft 376 kts 159°
2026-04-20 17:15 -5.17035 106.76426 18335 ft 373 kts 159°
2026-04-20 17:16 -5.19403 106.77502 17776 ft 373 kts 159°
2026-04-20 17:16 -5.21756 106.78569 17284 ft 370 kts 159°
2026-04-20 17:16 -5.24096 106.79630 16810 ft 368 kts 159°
2026-04-20 17:16 -5.26420 106.80684 16348 ft 365 kts 159°
2026-04-20 17:17 -5.28729 106.81730 15894 ft 363 kts 159°
2026-04-20 17:17 -5.31027 106.82772 15447 ft 360 kts 159°
2026-04-20 17:17 -5.33297 106.83800 15001 ft 358 kts 159°
2026-04-20 17:17 -5.35569 106.84830 14552 ft 355 kts 159°
2026-04-20 17:18 -5.37788 106.85836 14110 ft 353 kts 159°
2026-04-20 17:18 -5.40019 106.86846 13694 ft 350 kts 159°
2026-04-20 17:18 -5.42199 106.87836 13598 ft 336 kts 159°
2026-04-20 17:18 -5.44314 106.88797 13520 ft 323 kts 160°
2026-04-20 17:19 -5.46354 106.89582 13274 ft 314 kts 167°
2026-04-20 17:19 -5.48474 106.90017 12876 ft 308 kts 178°
2026-04-20 17:19 -5.50600 106.90090 12514 ft 303 kts 184°
2026-04-20 17:19 -5.52695 106.90076 12155 ft 300 kts 185°
2026-04-20 17:20 -5.54768 106.90052 11767 ft 297 kts 185°
2026-04-20 17:20 -5.56835 106.90024 11362 ft 295 kts 185°
2026-04-20 17:20 -5.58887 106.89995 10946 ft 293 kts 185°
2026-04-20 17:20 -5.60926 106.89966 10519 ft 291 kts 185°
2026-04-20 17:21 -5.62945 106.89936 10084 ft 290 kts 185°
2026-04-20 17:21 -5.64960 106.89907 9635 ft 288 kts 185°
2026-04-20 17:21 -5.66959 106.89878 9175 ft 286 kts 185°
2026-04-20 17:21 -5.68914 106.89849 8715 ft 284 kts 185°
2026-04-20 17:22 -5.70877 106.89820 8241 ft 281 kts 185°
2026-04-20 17:22 -5.72826 106.89805 7786 ft 279 kts 184°
2026-04-20 17:22 -5.74765 106.89845 7283 ft 278 kts 182°
2026-04-20 17:22 -5.76689 106.89890 6784 ft 276 kts 182°
2026-04-20 17:23 -5.78599 106.89930 6315 ft 273 kts 182°
2026-04-20 17:23 -5.80484 106.89947 5870 ft 269 kts 181°
2026-04-20 17:23 -5.82343 106.89975 5353 ft 268 kts 179°
2026-04-20 17:23 -5.84194 106.90015 4950 ft 262 kts 179°
2026-04-20 17:24 -5.85965 106.90050 4856 ft 244 kts 179°
2026-04-20 17:24 -5.87602 106.90063 4773 ft 227 kts 180°
2026-04-20 17:24 -5.89193 106.90055 4697 ft 226 kts 181°
2026-04-20 17:24 -5.90754 106.90047 4621 ft 225 kts 180°
2026-04-20 17:25 -5.92301 106.90044 4547 ft 225 kts 180°
2026-04-20 17:25 -5.93856 106.90035 4481 ft 220 kts 185°
2026-04-20 17:25 -5.95289 106.89647 4212 ft 213 kts 207°
2026-04-20 17:25 -5.96499 106.88816 3882 ft 209 kts 217°
2026-04-20 17:26 -5.97648 106.87922 3494 ft 209 kts 218°
2026-04-20 17:26 -5.98783 106.87015 3126 ft 208 kts 218°
2026-04-20 17:26 -5.99909 106.86104 2759 ft 207 kts 219°
2026-04-20 17:26 -6.01019 106.85199 2397 ft 205 kts 219°
2026-04-20 17:27 -6.02113 106.84302 2132 ft 200 kts 219°
2026-04-20 17:27 -6.03149 106.83447 2082 ft 181 kts 220°
2026-04-20 17:27 -6.03933 106.82545 1971 ft 162 kts 238°
2026-04-20 17:27 -6.04409 106.81564 2041 ft 155 kts 244°
2026-04-20 17:28 -6.04855 106.80568 1996 ft 153 kts 245°
2026-04-20 17:28 -6.05272 106.79600 2009 ft 151 kts 246°
2026-04-20 17:28 -6.05682 106.78629 2062 ft 153 kts 246°
2026-04-20 17:28 -6.06096 106.77631 1973 ft 153 kts 247°
2026-04-20 17:29 -6.06498 106.76651 1806 ft 152 kts 247°
2026-04-20 17:29 -6.06894 106.75656 1598 ft 152 kts 248°
2026-04-20 17:29 -6.07267 106.74671 1444 ft 151 kts 249°
2026-04-20 17:29 -6.07635 106.73683 1355 ft 151 kts 248°
2026-04-20 17:30 -6.08026 106.72708 1296 ft 152 kts 246°
2026-04-20 17:30 -6.08453 106.71748 1131 ft 152 kts 245°
2026-04-20 17:30 -6.08871 106.70774 843 ft 150 kts 247°
2026-04-20 17:30 -6.09258 106.69801 617 ft 149 kts 248°
2026-04-20 17:31 -6.09629 106.68837 465 ft 149 kts 248°
2026-04-20 17:31 -6.10016 106.67873 293 ft 149 kts 248°
2026-04-20 17:31 -6.10399 106.66911 81 ft 147 kts 247°
2026-04-20 17:31 -6.10746 106.66041 49 ft 112 kts 247°
2026-04-20 17:32 -6.10972 106.65506 49 ft 62 kts 248°
2026-04-20 17:32 -6.11111 106.65161 49 ft 46 kts 247°
2026-04-20 17:32 -6.11203 106.64939 49 ft 28 kts 247°
2026-04-20 17:32 -6.11311 106.64791 49 ft 24 kts 216°
2026-04-20 17:33 -6.11425 106.64714 49 ft 15 kts 200°
2026-04-20 17:33 -6.11515 106.64728 49 ft 11 kts 146°
2026-04-20 17:33 -6.11546 106.64748 49 ft 9 kts 154°
2026-04-20 17:33 -6.11599 106.64770 49 ft 8 kts 158°
2026-04-20 17:34 -6.11647 106.64789 49 ft 7 kts 158°
2026-04-20 17:34 -6.11694 106.64800 49 ft 8 kts 181°
2026-04-20 17:34 -6.11758 106.64774 49 ft 12 kts 215°
2026-04-20 17:34 -6.11829 106.64704 49 ft 16 kts 225°
2026-04-20 17:35 -6.11897 106.64649 49 ft 8 kts 204°
2026-04-20 17:35 -6.11955 106.64649 49 ft 10 kts 159°
2026-04-20 17:35 -6.12035 106.64683 49 ft 14 kts 157°
2026-04-20 17:35 -6.12119 106.64717 49 ft 9 kts 159°
2026-04-20 17:36 -6.12170 106.64737 49 ft 6 kts 156°
2026-04-20 17:36 -6.12201 106.64762 49 ft 5 kts 116°
2026-04-20 17:36 -6.12201 106.64800 49 ft 6 kts 74°
2026-04-20 17:36 -6.12189 106.64838 49 ft 5 kts 75°
2026-04-20 17:37 -6.12192 106.64866 49 ft 3 kts 117°
2026-04-20 17:37 -6.12205 106.64881 49 ft 2 kts 139°
2026-04-20 17:37 -6.12214 106.64888 49 ft 1 kts 141°
2026-04-20 17:37 -6.12220 106.64893 49 ft 1 kts 143°
2026-04-20 17:38 -6.12228 106.64899 49 ft 1 kts 144°
2026-04-20 17:38 -6.12235 106.64904 49 ft 1 kts 143°
2026-04-20 17:38 -6.12239 106.64907 49 ft 0 kts 144°
2026-04-20 17:38 -6.12242 106.64909 49 ft 0 kts 144°